Showing default

ICEYE-X55, 64581

Orbit data source: Space-Track

ICEYE-X55, 64581 is a payload satellite owned by ICEYE (FI) in SSO that was launched on Mon, 23 Jun 2025 UTC via an FALCON 9 launch vehicle from the Air Force Western Test Range (AFWTR). Payload-class satellites include a variety of spacecraft equipped with specific instruments for various scientific and technological missions. These include communications satellites like Starlink; space stations such as the ISS; scientific satellites like the Hubble; Earth observation satellites from companies like Planet Labs, Umbra, and HawkEye 360; GPS; miniature CubeSats for education and research; and military/defense satellites.

Loading next visibility...
Identifier
64581, 2025-135BF
Orbit
SSO
Country
Flag of FIFI / FIN
Related business
Manufacturer
ICEYE
Mission
Operational Commercial Radar Imaging
Bus & Motor
ICEYE, Unknown motor
Mass
80 kg wet, 80 kg dry
Launch date (UTC)
2025-06-23 (8 months ago)
Launch vehicle
FALCON 9
Launch site
Air Force Western Test Range (AFWTR)
Object type
Payload
Rocket body
Debris
Shape & HBR
Box + 1 Pan, 2.4 m
Radar Cross Section
0.776 m², Medium (>0.1 m² and < 1m²)

Expand to show TLE details & history
Last TLE update: 7 hours ago

TLE from 7 hours ago
0 ICEYE-X55
1 64581U 25135BF  26062.53869017  .00006409  00000-0  59972-3 0  9999
2 64581  97.7617 178.3751 0002583   8.6693 351.4571 14.94432651 38135
Epoch: 2026-03-03T12:55Z
TLE epoch observation values (Epoch: 2026-03-03T12:55:42.830Z)
Latitude
-0.00007°
Longitude
-176.86966°
Altitude
585.401 km
Speed
7.569 km/s
True Right ascension
11h 53m 30s
True Declination
0° 00' 00"
Sunlit
Object was in full shadow at epoch
Visualization orbit readout
Latitude
Unknown
Longitude
Unknown
Altitude
Unknown
Speed
Unknown
Apparent Right ascension
Unknown
Apparent Declination
Unknown
Sunlit
N/A
Visualization observer readout
Local Sidereal Time
23:39:03
Azimuth
Unknown
Elevation
Unknown
Doppler factor
Unknown
Orbital elements
Apogee altitude
582.947 km
Perigee altitude
579.352 km
Semi-major axis
6,959.287 km
Eccentricity
0.00026
Inclination
97.7617°
RAAN
178.3751°
Arg. of periapsis
8.6693°
True anomaly
351.4527°
Mean anomaly
351.4571°
Eccentric anomaly
351.4549°
Mean motion
3.73849 °/min
Orbital period
96.3 mins
BSTAR
0.00059972
Loading maneuver chart data...
Computing Atmospheric mass density...
Loading historical data...
Loading historical data...
Loading historical data...
Loading historical data...
Loading historical data...
Loading historical data...
Loading historical data...

Documentation

Showing up to 5 results
|